Plattsburgh, NY

12:35 PM EDT on April 28, 2017 (GMT -0400)
Plattsburgh International

Weather History for KPBG - December, 2012

Change the Weather History Date:

Wednesday, December 19, 2012

  Actual Average Record
Temperature  
Mean Temperature 36 °F 23 °F  
Max Temperature 41 °F 32 °F 49 °F (1967)
Min Temperature 31 °F 15 °F -20 °F (1985)
Degree Days  
Heating Degree Days 29 42  
Month to date heating degree days 589 726  
Since 1 July heating degree days 2152 2360  
Cooling Degree Days 0 0  
Month to date cooling degree days 0  
Year to date cooling degree days 346  
Moisture  
Dew Point 30 °F    
Average Humidity 82    
Maximum Humidity 100    
Minimum Humidity 64    
Precipitation  
Precipitation 0.00 in - 0.17 in (1970)
Month to date precipitation 1.27  
Year to date precipitation 25.85  
Sea Level Pressure  
Sea Level Pressure 29.82 in    
Wind  
Wind Speed 5 mph (NW)    
Max Wind Speed 14 mph    
Max Gust Speed 24 mph    
Visibility 10 miles    
Events      
T = Trace of Precipitation, MM = Missing Value Source: NWS Daily Summary

Daily Weather History Graph

Daily Weather History Graph

Search for Another Location

Airport or City:

Trip Planner

Search our weather history database for the weather conditions in past years. The results will help you decide how hot, cold, wet, or windy it might be!

Date:

Astronomy

Dec. 19, 2012 Rise Set
Actual Time 7:26 AM EST 4:15 PM EST
Civil Twilight 6:53 AM EST 4:49 PM EST
Nautical Twilight 6:16 AM EST 5:26 PM EST
Astronomical Twilight 5:40 AM EST 6:01 PM EST
Moon 11:18 AM EST (12/19) 11:58 PM EST (12/19)
Length of Visible Light 9h 55m
Length of Day
8h 48m
Waxing Crescent, 45% of the Moon is Illuminated
Dec 19
Waxing Crescent
Dec 20
First Quarter
Dec 28
Full
Jan 4
Last Quarter
Jan 11
New

Hourly Weather History & Observations

Time (EST) Temp. Windchill Dew Point Humidity Pressure Visibility Wind Dir Wind Speed Gust Speed Precip Events Conditions
12:53 AM 37.0 °F - 32.0 °F 82% 29.55 in 10.0 mi Calm Calm - N/A   Overcast
1:53 AM 35.1 °F - 33.1 °F 92% 29.57 in 10.0 mi Calm Calm - N/A   Overcast
2:53 AM 35.1 °F - 33.1 °F 92% 29.59 in 10.0 mi Calm Calm - N/A   Overcast
3:53 AM 35.1 °F - 33.1 °F 92% 29.60 in 10.0 mi Calm Calm - N/A   Overcast
4:53 AM 34.0 °F - 33.1 °F 96% 29.62 in 10.0 mi Calm Calm - N/A   Overcast
5:53 AM 34.0 °F - 33.1 °F 96% 29.64 in 10.0 mi Calm Calm - N/A   Overcast
6:53 AM 34.0 °F - 32.0 °F 92% 29.67 in 10.0 mi Calm Calm - N/A   Overcast
7:53 AM 34.0 °F - 33.1 °F 96% 29.69 in 10.0 mi Calm Calm - N/A   Overcast
8:53 AM 37.0 °F 32.4 °F 33.1 °F 86% 29.73 in 10.0 mi NNE 5.8 mph - N/A   Overcast
9:53 AM 37.9 °F 30.0 °F 33.1 °F 83% 29.75 in 10.0 mi North 12.7 mph - N/A   Overcast
10:28 AM 37.4 °F 29.8 °F 32.0 °F 81% 29.75 in 10.0 mi North 11.5 mph - N/A   Overcast
10:53 AM 37.9 °F 30.9 °F 33.1 °F 83% 29.76 in 10.0 mi NNW 10.4 mph - N/A   Overcast
11:53 AM 39.9 °F 34.5 °F 30.9 °F 70% 29.78 in 10.0 mi NNW 8.1 mph - N/A   Overcast
12:05 PM 39.2 °F 34.2 °F 30.2 °F 70% 29.78 in 10.0 mi NNW 6.9 mph - N/A   Overcast
12:18 PM 39.2 °F 33.6 °F 30.2 °F 70% 29.79 in 10.0 mi NW 8.1 mph - N/A   Overcast
12:36 PM 39.2 °F 33.0 °F 30.2 °F 70% 29.80 in 10.0 mi WNW 9.2 mph - N/A   Overcast
12:53 PM 39.9 °F 34.5 °F 30.9 °F 70% 29.81 in 10.0 mi NW 8.1 mph - N/A   Overcast
1:53 PM 39.9 °F 32.9 °F 30.0 °F 68% 29.84 in 10.0 mi NW 11.5 mph - N/A   Overcast
2:53 PM 39.0 °F 34.8 °F 30.0 °F 70% 29.88 in 10.0 mi NNW 5.8 mph - N/A   Overcast
3:42 PM 37.4 °F 31.4 °F 30.2 °F 75% 29.90 in 10.0 mi NW 8.1 mph 16.1 mph N/A   Overcast
3:53 PM 37.9 °F 32.1 °F 30.0 °F 73% 29.92 in 10.0 mi NW 8.1 mph - N/A   Overcast
4:53 PM 37.9 °F 33.5 °F 30.0 °F 73% 29.95 in 10.0 mi NW 5.8 mph - N/A   Overcast
5:14 PM 37.4 °F 32.8 °F 30.2 °F 75% 29.95 in 10.0 mi NW 5.8 mph - N/A   Overcast
5:53 PM 37.9 °F 32.7 °F 28.9 °F 70% 29.99 in 10.0 mi NW 6.9 mph - N/A   Overcast
6:53 PM 37.0 °F 31.6 °F 27.0 °F 67% 30.02 in 10.0 mi WNW 6.9 mph - N/A   Overcast
7:53 PM 36.0 °F 28.0 °F 27.0 °F 70% 30.04 in 10.0 mi WNW 11.5 mph 19.6 mph N/A   Overcast
8:53 PM 35.1 °F 30.1 °F 26.1 °F 70% 30.06 in 10.0 mi NW 5.8 mph - N/A   Overcast
9:53 PM 34.0 °F 28.0 °F 26.1 °F 73% 30.07 in 10.0 mi WNW 6.9 mph - N/A   Mostly Cloudy
10:53 PM 33.1 °F - 26.1 °F 75% 30.10 in 10.0 mi Calm Calm - N/A   Overcast
11:53 PM 32.0 °F - 26.1 °F 79% 30.13 in 10.0 mi Calm Calm - N/A   Overcast